User: anonymous   Login
Location: Vancouver
(49.2500°N, 123.1330°W)
Time: 23:27:52
(UTC-07:00)
Language:

CZ-2C R/B - Orbit

View from above orbital plane
View from above orbital plane
View from above satellite
View from above satellite

Ground track
Ground track

The orbit data is extracted from the following two-line orbital elements,

1 28480U 04046B   15148.95163164  .00000062  00000-0  39759-4 0  9995
2 28480 098.1374 284.2468 0140986 279.6503 187.2655 14.25501172547345
Epoch (UTC): 28 May 2015 22:50:20
Eccentricity: 0.0140986
inclination: 98.1374°
perigee height: 705 km
apogee height: 908 km
right ascension of ascending node: 284.2468°
argument of perigee: 279.6503°
revolutions per day: 14.25501172
mean anomaly at epoch: 187.2655°
orbit number at epoch: 54734

The dashed part of the orbit path shows where the satellite is in the earth's shadow,  

DLR